Location: Frizzleburg
(41.0764°N, 80.4548°W)
Time: 21:30:12
(UTC+00:00)

Cosmos 2151 - Pass Details

Date: 17 November 2019
Orbit: 581 x 602 km, 82.5° (Epoch: 06 December)

Event Time Altitude Azimuth Distance (km) Brightness Sun altitude
Rises 11:27:31 0° 227° (SW) 2,840 6.2 -8.6°
Reaches altitude 10° 11:30:24 10° 248° (WSW) 1,943 5.2 -8.1°
Maximum altitude 11:33:13 17° 289° (WNW) 1,547 4.5 -7.6°
Drops below altitude 10° 11:36:03 10° 330° (NNW) 1,952 5.2 -7.1°
Sets 11:38:58 0° 351° (N) 2,859 6.2 -6.5°
